Location: Baia Mare
(47.6567°N, 23.5850°E)
Time: 00:26:00
(UTC+03:00)

ISS - Pass Details

Date: 19 July 2018
Orbit: 402 x 408 km, 51.6° (Epoch: 16 July)

Event Time Altitude Azimuth Distance (km) Brightness Sun altitude
Rises 22:26:36 0° 207° (SSW) 2,307 -0.2 -10.0°
Reaches altitude 10° 22:28:58 10° 191° (SSW) 1,453 -1.4 -10.2°
Maximum altitude 22:31:31 21° 140° (SE) 961 -2.6 -10.5°
Drops below altitude 10° 22:34:05 10° 88° (E) 1,463 -1.4 -10.8°
Sets 22:36:28 0° 72° (ENE) 2,328 -0.2 -11.1°
